Baltimore, MD

11:01 PM EDT on June 25, 2017 (GMT -0400)
Baltimore-Washington International

Weather History for KBWI - May, 2014

Change the Weather History Date:

Wednesday, May 14, 2014

  Actual Average Record
Temperature  
Mean Temperature 61 °F 62 °F  
Max Temperature 65 °F 73 °F 95 °F (1956)
Min Temperature 57 °F 51 °F 34 °F (1996)
Degree Days  
Heating Degree Days 4 5  
Month to date heating degree days 41 82  
Since 1 July heating degree days 4971 4697  
Cooling Degree Days 0 2  
Month to date cooling degree days 31 18  
Year to date cooling degree days 38 32  
Growing Degree Days 10 (Base 50)    
Moisture  
Dew Point 59 °F    
Average Humidity 92    
Maximum Humidity 100    
Minimum Humidity 84    
Precipitation  
Precipitation T in 0.14 in 0.91 in (1938)
Month to date precipitation 0.76 1.71  
Year to date precipitation 21.03 14.75  
Snow  
Snow 0.00 in 0.00 in - ()
Month to date snowfall 0.0 0.0  
Since 1 July snowfall 39.0 20.1  
Snow Depth 0.00 in    
Sea Level Pressure  
Sea Level Pressure 30.20 in    
Wind  
Wind Speed 9 mph (East)    
Max Wind Speed 17 mph    
Max Gust Speed 20 mph    
Visibility 3 miles    
Events Fog , Rain    
T = Trace of Precipitation, MM = Missing Value Source: NWS Daily Summary

Daily Weather History Graph

Daily Weather History Graph

Search for Another Location

Airport or City:

Trip Planner

Search our weather history database for the weather conditions in past years. The results will help you decide how hot, cold, wet, or windy it might be!

Date:

Astronomy

May. 14, 2014 Rise Set
Actual Time 5:54 AM EDT 8:12 PM EDT
Civil Twilight 5:24 AM EDT 8:42 PM EDT
Nautical Twilight 4:47 AM EDT 9:19 PM EDT
Astronomical Twilight 4:06 AM EDT 10:00 PM EDT
Moon 8:15 PM EDT (5/14) 5:51 AM EDT (5/14)
Length of Visible Light 15h 18m
Length of Day
14h 17m
Full, 100% of the Moon is Illuminated
May 14
Full
May 14
Full
May 21
Last Quarter
May 28
New
Jun 5
First Quarter

Hourly Weather History & Observations

Time (EDT) Temp. Dew Point Humidity Pressure Visibility Wind Dir Wind Speed Gust Speed Precip Events Conditions
12:03 AM 59.0 °F 55.4 °F 88% 30.20 in 8.0 mi East 13.8 mph - N/A   Overcast
12:54 AM 59.0 °F 55.0 °F 87% 30.21 in 8.0 mi East 11.5 mph - N/A   Overcast
12:58 AM 57.2 °F 55.4 °F 94% 30.20 in 7.0 mi East 12.7 mph - N/A   Overcast
1:54 AM 59.0 °F 55.9 °F 90% 30.16 in 7.0 mi East 10.4 mph - N/A   Overcast
2:54 AM 59.0 °F 57.0 °F 93% 30.19 in 5.0 mi ENE 9.2 mph - N/A   Overcast
3:02 AM 59.0 °F 57.2 °F 94% 30.20 in 2.5 mi East 10.4 mph - N/A   Overcast
3:54 AM 57.9 °F 57.0 °F 97% 30.19 in 2.0 mi East 8.1 mph - N/A   Overcast
4:54 AM 57.2 °F 57.2 °F 100% 30.20 in 2.0 mi East 6.9 mph - N/A   Overcast
5:24 AM 57.2 °F 57.2 °F 100% 30.20 in 3.0 mi East 8.1 mph - N/A   Overcast
5:50 AM 57.2 °F 57.2 °F 100% 30.21 in 2.0 mi East 9.2 mph - N/A   Overcast
5:54 AM 57.9 °F 57.0 °F 97% 30.21 in 1.5 mi ENE 9.2 mph - N/A   Overcast
6:16 AM 57.2 °F 55.4 °F 94% 30.21 in 1.2 mi NE 9.2 mph - 0.00 in   Light Drizzle
6:54 AM 57.9 °F 57.0 °F 97% 30.22 in 1.2 mi ENE 11.5 mph - 0.00 in   Light Drizzle
7:37 AM 57.2 °F 57.2 °F 100% 30.24 in 1.0 mi NE 6.9 mph - 0.00 in   Light Drizzle
7:54 AM 57.2 °F 57.2 °F 100% 30.24 in 1.0 mi NNE 6.9 mph - N/A   Light Drizzle
8:54 AM 57.9 °F 55.9 °F 93% 30.24 in 1.0 mi NE 9.2 mph - 0.00 in   Light Drizzle
9:10 AM 57.2 °F 57.2 °F 100% 30.25 in 0.8 mi ENE 9.2 mph - 0.00 in   Light Drizzle
9:48 AM 57.2 °F 57.2 °F 100% 30.25 in 1.0 mi East 10.4 mph - 0.00 in   Light Drizzle
9:54 AM 59.0 °F 57.0 °F 93% 30.24 in 1.0 mi ENE 12.7 mph - 0.00 in   Light Drizzle
10:19 AM 59.0 °F 57.2 °F 94% 30.24 in 1.5 mi East 12.7 mph - 0.00 in   Light Drizzle
10:40 AM 59.0 °F 57.2 °F 94% 30.25 in 2.0 mi East 10.4 mph - 0.00 in   Light Drizzle
11:54 AM 60.1 °F 57.0 °F 90% 30.25 in 2.5 mi East 10.4 mph - 0.00 in   Light Drizzle
12:54 PM 61.0 °F 57.9 °F 90% 30.23 in 2.5 mi ENE 12.7 mph - 0.00 in   Light Drizzle
1:42 PM 62.6 °F 57.2 °F 82% 30.21 in 3.0 mi East 10.4 mph - 0.00 in   Overcast
1:54 PM 62.1 °F 57.9 °F 86% 30.22 in 4.0 mi East 10.4 mph - 0.00 in   Overcast
2:54 PM 64.0 °F 59.0 °F 84% 30.21 in 5.0 mi East 8.1 mph - N/A   Haze
3:54 PM 64.9 °F 60.1 °F 84% 30.19 in 6.0 mi East 8.1 mph - 0.00 in   Light Drizzle
4:54 PM 64.9 °F 61.0 °F 87% 30.18 in 4.0 mi ENE 8.1 mph - 0.00 in   Light Drizzle
5:54 PM 64.9 °F 61.0 °F 87% 30.16 in 4.0 mi East 9.2 mph - 0.00 in   Overcast
6:54 PM 64.9 °F 61.0 °F 87% 30.16 in 4.0 mi ESE 6.9 mph - N/A   Overcast
7:24 PM 64.4 °F 62.6 °F 94% 30.15 in 2.0 mi East 6.9 mph - N/A   Overcast
7:54 PM 64.0 °F 62.1 °F 93% 30.14 in 1.0 mi East 9.2 mph - 0.00 in   Light Drizzle
8:54 PM 64.0 °F 63.0 °F 96% 30.15 in 1.5 mi East 6.9 mph - 0.00 in   Light Drizzle
9:18 PM 64.4 °F 62.6 °F 94% 30.15 in 1.0 mi East 5.8 mph - 0.00 in   Light Drizzle
9:54 PM 64.0 °F 63.0 °F 96% 30.16 in 1.0 mi ESE 5.8 mph - 0.00 in   Light Drizzle
10:54 PM 64.0 °F 63.0 °F 96% 30.16 in 1.0 mi East 9.2 mph - 0.00 in   Light Drizzle
11:37 PM 62.6 °F 62.6 °F 100% 30.16 in 0.5 mi East 5.8 mph - 0.00 in Fog Light Drizzle
11:54 PM 63.0 °F 63.0 °F 100% 30.17 in 0.5 mi ENE 8.1 mph - 0.00 in Fog Light Drizzle